TUI2DJ EDDS-LEPA

Flight info

Callsign TUI2DJ
Flight time N/A
Altitude 37000
Route ROTWE5B/25 ROTWE Y126 TUBLO N850 NATOR DCT LUTIX DCT BENOT DCT NEMOS DCT GEVEA DCT INCUS DCT BALSI DCT RETNO DCT TUPOX DCT MTG DCT DIVKO DCT VATIR DCT PIVUS DCT BODEQ DCT VERSO DCT LUNIK
Aircraft B738/M-SDE2E3FGHIRWXY/LB1

Departure

Time N/A
Airport Stuttgart Airport (EDDS)

Arrival

Time 2026-05-05 17:53
Airport Palma de Mallorca Airport (LEPA)
Time Latitude Longitude Altitude Speed Heading
2026-05-05 16:57 47.02616 7.11472 36893 ft 418 kts 230°
2026-05-05 16:57 47.00820 7.08201 36879 ft 417 kts 230°
2026-05-05 16:58 46.97291 7.01773 36880 ft 414 kts 230°
2026-05-05 16:58 46.93783 6.95390 36901 ft 412 kts 230°
2026-05-05 16:59 46.90008 6.89143 36873 ft 410 kts 220°
2026-05-05 16:59 46.78404 6.75442 36882 ft 410 kts 219°
2026-05-05 17:00 46.59855 6.53478 36896 ft 411 kts 219°
2026-05-05 17:00 46.32165 6.21068 36920 ft 413 kts 219°
2026-05-05 17:01 46.27612 6.15979 36877 ft 415 kts 212°
2026-05-05 17:01 46.22317 6.12634 36883 ft 418 kts 198°
2026-05-05 17:02 46.04836 6.08641 36832 ft 424 kts 191°
2026-05-05 17:02 45.63563 5.99567 36818 ft 422 kts 192°
2026-05-05 17:03 45.53805 5.97442 36873 ft 414 kts 193°
2026-05-05 17:03 45.42234 5.94610 36922 ft 406 kts 196°
2026-05-05 17:04 45.28395 5.90110 36900 ft 403 kts 197°
2026-05-05 17:04 45.21980 5.88085 36898 ft 401 kts 197°
2026-05-05 17:05 45.16516 5.86387 36892 ft 404 kts 197°
2026-05-05 17:05 45.11054 5.84695 36891 ft 411 kts 197°
2026-05-05 17:06 45.05456 5.82966 36900 ft 413 kts 197°
2026-05-05 17:06 44.99975 5.81338 36926 ft 406 kts 196°
2026-05-05 17:07 44.78982 5.74826 36904 ft 394 kts 197°
2026-05-05 17:07 44.56903 5.68115 36909 ft 400 kts 196°
2026-05-05 17:08 44.34897 5.61043 36912 ft 408 kts 204°
2026-05-05 17:08 44.13744 5.49067 36880 ft 410 kts 205°
2026-05-05 17:09 43.93311 5.37982 36873 ft 398 kts 205°
2026-05-05 17:09 43.72949 5.27016 36917 ft 392 kts 205°
2026-05-05 17:10 43.52297 5.15976 36957 ft 406 kts 205°
2026-05-05 17:10 43.32428 5.03160 36913 ft 403 kts 218°
2026-05-05 17:11 43.27392 4.98327 36785 ft 405 kts 211°
2026-05-05 17:11 43.22089 4.93730 36774 ft 399 kts 219°
2026-05-05 17:11 43.07402 4.79450 36842 ft 390 kts 216°
2026-05-05 17:12 42.88811 4.64943 36908 ft 383 kts 212°
2026-05-05 17:12 42.69920 4.50766 36928 ft 393 kts 212°
2026-05-05 17:13 42.50555 4.36291 36902 ft 404 kts 212°
2026-05-05 17:13 42.36759 4.26045 36855 ft 396 kts 211°
2026-05-05 17:14 42.34454 4.24341 36923 ft 384 kts 212°
2026-05-05 17:14 42.32203 4.22676 36866 ft 381 kts 212°
2026-05-05 17:14 42.27535 4.19222 36912 ft 386 kts 212°
2026-05-05 17:15 42.22807 4.15730 36897 ft 394 kts 212°
2026-05-05 17:15 42.17996 4.12187 36889 ft 396 kts 212°
2026-05-05 17:16 42.13150 4.08621 36888 ft 398 kts 212°
2026-05-05 17:16 42.08300 4.05055 36870 ft 398 kts 212°
2026-05-05 17:17 42.03491 4.01524 36877 ft 396 kts 212°
2026-05-05 17:17 41.99078 3.98288 36878 ft 395 kts 212°
2026-05-05 17:18 41.94292 3.94823 36876 ft 394 kts 209°
2026-05-05 17:18 41.89058 3.92537 36878 ft 402 kts 196°
2026-05-05 17:19 41.83589 3.91312 36876 ft 400 kts 196°
2026-05-05 17:19 41.78113 3.90066 36877 ft 398 kts 196°
2026-05-05 17:20 41.72667 3.88804 36879 ft 397 kts 196°
2026-05-05 17:20 41.67248 3.87543 36874 ft 396 kts 197°
2026-05-05 17:21 41.61815 3.86282 36880 ft 396 kts 197°
2026-05-05 17:22 41.53709 3.84422 36880 ft 397 kts 196°
2026-05-05 17:22 41.48247 3.83176 36610 ft 402 kts 196°
2026-05-05 17:22 41.45480 3.82543 36361 ft 403 kts 196°
2026-05-05 17:23 41.42725 3.81918 36087 ft 400 kts 196°
2026-05-05 17:23 41.39989 3.81299 35638 ft 395 kts 196°
2026-05-05 17:23 41.37300 3.80691 35256 ft 391 kts 196°
2026-05-05 17:23 41.34690 3.80099 34873 ft 387 kts 197°
2026-05-05 17:24 41.32122 3.79516 34479 ft 383 kts 197°
2026-05-05 17:24 41.29517 3.78925 34092 ft 378 kts 197°
2026-05-05 17:24 41.26947 3.78341 33644 ft 374 kts 197°
2026-05-05 17:24 41.24451 3.77775 33268 ft 369 kts 197°
2026-05-05 17:25 41.21932 3.77204 32883 ft 364 kts 197°
2026-05-05 17:25 41.20297 3.76835 32625 ft 361 kts 197°
2026-05-05 17:25 41.17007 3.76091 32126 ft 355 kts 198°
2026-05-05 17:25 41.14672 3.75378 31779 ft 345 kts 204°
2026-05-05 17:26 41.12493 3.74312 31525 ft 335 kts 207°
2026-05-05 17:26 41.10353 3.73197 31264 ft 329 kts 207°
2026-05-05 17:26 41.08245 3.72097 31015 ft 322 kts 208°
2026-05-05 17:26 41.06156 3.71006 30636 ft 328 kts 208°
2026-05-05 17:27 41.03982 3.69865 30324 ft 346 kts 207°
2026-05-05 17:27 41.01675 3.68656 29944 ft 365 kts 207°
2026-05-05 17:27 40.99379 3.67460 29492 ft 382 kts 207°
2026-05-05 17:27 40.96857 3.66155 28999 ft 393 kts 207°
2026-05-05 17:28 40.94402 3.64898 28549 ft 385 kts 207°
2026-05-05 17:28 40.91931 3.63640 28101 ft 377 kts 207°
2026-05-05 17:28 40.89516 3.62410 27673 ft 369 kts 207°
2026-05-05 17:28 40.87147 3.61200 27254 ft 363 kts 207°
2026-05-05 17:29 40.84821 3.60008 26810 ft 363 kts 207°
2026-05-05 17:29 40.82469 3.58799 26431 ft 367 kts 207°
2026-05-05 17:29 40.80104 3.57583 26010 ft 370 kts 207°
2026-05-05 17:29 40.77730 3.56367 25588 ft 367 kts 207°
2026-05-05 17:30 40.75410 3.55182 25180 ft 365 kts 207°
2026-05-05 17:30 40.73018 3.53961 24764 ft 363 kts 207°
2026-05-05 17:30 40.70712 3.52784 24349 ft 360 kts 207°
2026-05-05 17:30 40.68370 3.51588 23957 ft 360 kts 207°
2026-05-05 17:31 40.66034 3.50396 23543 ft 361 kts 207°
2026-05-05 17:31 40.63697 3.49205 23066 ft 359 kts 207°
2026-05-05 17:31 40.61390 3.48031 22620 ft 356 kts 207°
2026-05-05 17:31 40.59087 3.46859 22201 ft 353 kts 207°
2026-05-05 17:32 40.56824 3.45709 21799 ft 351 kts 207°
2026-05-05 17:32 40.54555 3.44556 21398 ft 349 kts 207°
2026-05-05 17:32 40.52323 3.43421 21008 ft 348 kts 206°
2026-05-05 17:32 40.50040 3.42262 20608 ft 347 kts 206°
2026-05-05 17:33 40.47832 3.41142 20225 ft 347 kts 206°
2026-05-05 17:33 40.45584 3.40005 19832 ft 347 kts 205°
2026-05-05 17:33 40.43216 3.39247 19423 ft 357 kts 190°
2026-05-05 17:33 40.40717 3.39261 19050 ft 361 kts 184°
2026-05-05 17:34 40.38225 3.39420 18663 ft 362 kts 183°
2026-05-05 17:34 40.35707 3.39603 18277 ft 362 kts 183°
2026-05-05 17:34 40.33186 3.39782 17829 ft 362 kts 183°
2026-05-05 17:34 40.30686 3.39951 17405 ft 358 kts 183°
2026-05-05 17:35 40.28201 3.40109 17005 ft 355 kts 183°
2026-05-05 17:35 40.25751 3.40258 16618 ft 351 kts 183°
2026-05-05 17:35 40.23323 3.40402 16242 ft 347 kts 183°
2026-05-05 17:35 40.20964 3.40540 15875 ft 343 kts 183°
2026-05-05 17:36 40.18643 3.40674 15502 ft 340 kts 183°
2026-05-05 17:36 40.16291 3.40809 15145 ft 337 kts 183°
2026-05-05 17:36 40.13958 3.40943 14789 ft 335 kts 182°
2026-05-05 17:36 40.11635 3.41076 14432 ft 333 kts 182°
2026-05-05 17:37 40.09331 3.41208 14067 ft 331 kts 182°
2026-05-05 17:37 40.07030 3.41340 13723 ft 330 kts 182°
2026-05-05 17:37 40.04762 3.41472 13573 ft 322 kts 182°
2026-05-05 17:37 40.02525 3.41600 13298 ft 324 kts 182°
2026-05-05 17:38 40.00305 3.41725 12970 ft 320 kts 182°
2026-05-05 17:38 39.98250 3.41843 12898 ft 309 kts 182°
2026-05-05 17:38 39.96153 3.41965 12856 ft 296 kts 182°
2026-05-05 17:38 39.94133 3.42081 12773 ft 286 kts 183°
2026-05-05 17:39 39.92168 3.42191 12553 ft 281 kts 183°
2026-05-05 17:39 39.90212 3.42298 12175 ft 282 kts 183°
2026-05-05 17:39 39.88256 3.42404 11824 ft 282 kts 182°
2026-05-05 17:39 39.86297 3.42512 11503 ft 281 kts 182°
2026-05-05 17:40 39.84354 3.42621 11193 ft 280 kts 182°
2026-05-05 17:40 39.82409 3.42729 10864 ft 278 kts 182°
2026-05-05 17:40 39.80490 3.42837 10399 ft 276 kts 182°
2026-05-05 17:40 39.78560 3.42941 9866 ft 279 kts 182°
2026-05-05 17:41 39.76612 3.43035 9492 ft 280 kts 182°
2026-05-05 17:41 39.74704 3.43124 9271 ft 276 kts 182°
2026-05-05 17:41 39.72807 3.43220 9060 ft 272 kts 182°
2026-05-05 17:41 39.70914 3.43319 8731 ft 272 kts 182°
2026-05-05 17:42 39.69032 3.43416 8536 ft 267 kts 182°
2026-05-05 17:42 39.67180 3.43514 8422 ft 266 kts 182°
2026-05-05 17:42 39.65330 3.43607 8289 ft 267 kts 182°
2026-05-05 17:42 39.63473 3.43682 8166 ft 267 kts 184°
2026-05-05 17:43 39.61645 3.43372 8044 ft 266 kts 199°
2026-05-05 17:43 39.59979 3.42423 7937 ft 263 kts 214°
2026-05-05 17:43 39.58590 3.40903 7800 ft 262 kts 230°
2026-05-05 17:43 39.57593 3.38932 7682 ft 262 kts 245°
2026-05-05 17:44 39.57069 3.36677 7545 ft 265 kts 260°
2026-05-05 17:44 39.57050 3.34262 7292 ft 271 kts 275°
2026-05-05 17:44 39.57601 3.31919 7053 ft 272 kts 290°
2026-05-05 17:44 39.58381 3.29700 6809 ft 270 kts 291°
2026-05-05 17:45 39.59177 3.27510 6566 ft 267 kts 292°
2026-05-05 17:45 39.59965 3.25347 6318 ft 264 kts 292°
2026-05-05 17:45 39.60733 3.23235 6071 ft 262 kts 292°
2026-05-05 17:45 39.61501 3.21108 5821 ft 260 kts 292°
2026-05-05 17:46 39.62258 3.18988 5554 ft 258 kts 292°
2026-05-05 17:46 39.63005 3.16883 5305 ft 255 kts 292°
2026-05-05 17:46 39.63739 3.14789 5062 ft 254 kts 292°
2026-05-05 17:46 39.64443 3.12694 4812 ft 252 kts 287°
2026-05-05 17:47 39.64735 3.10469 4530 ft 250 kts 274°
2026-05-05 17:47 39.64829 3.08224 4226 ft 250 kts 272°
2026-05-05 17:47 39.64898 3.06001 3910 ft 250 kts 272°
2026-05-05 17:47 39.64959 3.03730 3647 ft 248 kts 272°
2026-05-05 17:48 39.65018 3.01519 3317 ft 250 kts 272°
2026-05-05 17:48 39.65063 2.99675 3172 ft 247 kts 272°
2026-05-05 17:48 39.65106 2.97493 3077 ft 238 kts 268°
2026-05-05 17:48 39.64672 2.95504 2986 ft 225 kts 243°
2026-05-05 17:49 39.63907 2.93816 2985 ft 208 kts 241°
2026-05-05 17:49 39.63188 2.92248 2837 ft 198 kts 241°
2026-05-05 17:49 39.62481 2.90750 2576 ft 192 kts 239°
2026-05-05 17:49 39.61788 2.89291 2359 ft 187 kts 239°
2026-05-05 17:50 39.61117 2.87884 2112 ft 178 kts 239°
2026-05-05 17:50 39.60497 2.86582 1880 ft 165 kts 239°
2026-05-05 17:50 39.59905 2.85335 1646 ft 158 kts 238°
2026-05-05 17:50 39.59348 2.84159 1482 ft 156 kts 239°
2026-05-05 17:51 39.58783 2.82977 1247 ft 155 kts 237°
2026-05-05 17:51 39.58234 2.81825 1099 ft 149 kts 237°
2026-05-05 17:51 39.57681 2.80671 847 ft 151 kts 237°
2026-05-05 17:51 39.57144 2.79526 621 ft 146 kts 237°
2026-05-05 17:52 39.56605 2.78377 452 ft 151 kts 238°
2026-05-05 17:52 39.56048 2.77226 246 ft 150 kts 238°
2026-05-05 17:52 39.55510 2.76085 59 ft 149 kts 238°
2026-05-05 17:52 39.55007 2.75027 29 ft 122 kts 236°
2026-05-05 17:53 39.54669 2.74319 35 ft 63 kts 238°
2026-05-05 17:53 39.54540 2.74047 36 ft 21 kts 240°
2026-05-05 17:53 39.54467 2.73888 32 ft 20 kts 239°
2026-05-05 17:53 39.54472 2.73734 34 ft 19 kts 324°
2026-05-05 17:54 39.54525 2.73692 34 ft 0 kts 330°
2026-05-05 17:55 39.54529 2.73689 34 ft 2 kts 330°
2026-05-05 17:56 39.54561 2.73673 35 ft 8 kts
2026-05-05 17:56 39.54620 2.73764 35 ft 19 kts 59°
2026-05-05 17:56 39.54697 2.73935 35 ft 23 kts 60°
2026-05-05 17:56 39.54772 2.74098 35 ft 15 kts 50°
2026-05-05 17:57 39.54862 2.74098 34 ft 14 kts 328°
2026-05-05 17:57 39.54945 2.74032 35 ft 14 kts 329°
2026-05-05 17:57 39.55039 2.73959 33 ft 17 kts 328°
2026-05-05 17:57 39.55143 2.73877 35 ft 13 kts 329°
2026-05-05 17:58 39.55174 2.73802 35 ft 10 kts 242°
2026-05-05 17:58 39.55178 2.73717 35 ft 10 kts 270°
2026-05-05 17:58 39.55186 2.73635 33 ft 10 kts 318°
2026-05-05 17:58 39.55243 2.73588 35 ft 10 kts 328°
2026-05-05 17:59 39.55287 2.73539 35 ft 8 kts 281°
2026-05-05 17:59 39.55265 2.73478 35 ft 6 kts 239°
2026-05-05 17:59 39.55257 2.73461 34 ft 0 kts 237°